Weather History for Culpeper, VA

Change the Weather History Date:

Friday, February 28, 2014

  Actual Average (KOMH) Record (KOMH)
Temperature  
Mean Temperature 22 °F -  
Max Temperature 32 °F 51 °F 73 °F (2011)
Min Temperature 12 °F 29 °F 11 °F (1963)
Degree Days  
Heating Degree Days 43    
Moisture  
Dew Point -2 °F    
Average Humidity 37    
Maximum Humidity 73    
Minimum Humidity 20    
Precipitation  
Precipitation 0.00 in - - ()
Sea Level Pressure  
Sea Level Pressure 30.34 in    
Wind  
Wind Speed 6 mph (NNE)    
Max Wind Speed 15 mph    
Max Gust Speed 21 mph    
Visibility 10 miles    
Events      
Averages and records for this station are not official NWS values.
T = Trace of Precipitation, MM = Missing Value Source: NWS Daily Summary

Daily Weather History Graph

Daily Weather History Graph

Search for Another Location

Airport:

Trip Planner

Search our weather history database for the weather conditions in past years. The results will help you decide how hot, cold, wet, or windy it might be!

Date:

Astronomy

Feb. 28, 2014 Rise Set
Actual Time 6:44 AM EST 6:03 PM EST
Civil Twilight 6:18 AM EST 6:30 PM EST
Nautical Twilight 5:47 AM EST 7:00 PM EST
Astronomical Twilight 5:17 AM EST 7:31 PM EST
Moon 5:58 AM EST (2/28) 5:37 PM EST (2/28)
Length of Visible Light 12h 11m
Length of Day
11h 18m
Waning Crescent, 1% of the Moon is Illuminated
Feb 28
Waning Crescent
Mar 1
New
Mar 8
First Quarter
Mar 16
Full
Mar 23
Last Quarter

Hourly Weather History & Observations

Time (EST) Temp. Windchill Dew Point Humidity Pressure Visibility Wind Dir Wind Speed Gust Speed Precip Events Conditions
12:15 AM 21.2 °F 7.8 °F 3.2 °F 46% 30.15 in 10.0 mi North 15.0 mph 20.7 mph N/A   Clear
12:35 AM 19.4 °F 5.5 °F 3.2 °F 49% 30.16 in 10.0 mi North 15.0 mph 18.4 mph N/A   Clear
12:55 AM 19.4 °F 7.9 °F 3.2 °F 49% 30.17 in 10.0 mi North 10.4 mph - N/A   Clear
1:15 AM 19.4 °F 7.9 °F 1.4 °F 46% 30.18 in 10.0 mi North 10.4 mph 16.1 mph N/A   Clear
1:35 AM 19.4 °F 8.6 °F 1.4 °F 46% 30.19 in 10.0 mi North 9.2 mph - N/A   Clear
1:55 AM 17.6 °F 6.4 °F 1.4 °F 49% 30.20 in 10.0 mi NNE 9.2 mph - N/A   Clear
2:15 AM 17.6 °F 5.0 °F 1.4 °F 49% 30.20 in 10.0 mi North 11.5 mph - N/A   Unknown
2:35 AM 17.6 °F 8.2 °F 1.4 °F 49% 30.21 in 10.0 mi NNE 6.9 mph - N/A   Unknown
2:55 AM 17.6 °F 12.3 °F -0.4 °F 45% 30.22 in 10.0 mi NNE 3.5 mph 9.2 mph N/A   Unknown
3:15 AM 15.8 °F 5.1 °F -0.4 °F 49% 30.23 in 10.0 mi NNE 8.1 mph - N/A   Unknown
3:35 AM 15.8 °F 5.1 °F -2.2 °F 45% 30.23 in 10.0 mi North 8.1 mph 16.1 mph N/A   Unknown
3:55 AM 15.8 °F 7.2 °F -2.2 °F 45% 30.25 in 10.0 mi NNE 5.8 mph - N/A   Unknown
4:15 AM 15.8 °F 5.1 °F -2.2 °F 45% 30.27 in 10.0 mi NNE 8.1 mph - N/A   Unknown
4:35 AM 15.8 °F 5.1 °F -4.0 °F 41% 30.28 in 10.0 mi NNE 8.1 mph - N/A   Unknown
4:55 AM 15.8 °F 7.2 °F -2.2 °F 45% 30.30 in 10.0 mi NNE 5.8 mph - N/A   Unknown
5:15 AM 14.0 °F 5.1 °F -2.2 °F 49% 30.31 in 10.0 mi North 5.8 mph - N/A   Unknown
5:35 AM 14.0 °F 5.1 °F -2.2 °F 49% 30.32 in 10.0 mi North 5.8 mph - N/A   Unknown
5:55 AM 12.2 °F 4.3 °F -0.4 °F 57% 30.33 in 10.0 mi North 4.6 mph - N/A   Unknown
6:15 AM 12.2 °F - -2.2 °F 53% 30.34 in 10.0 mi Calm Calm - N/A   Unknown
6:35 AM 12.2 °F - -4.0 °F 48% 30.35 in 10.0 mi Calm Calm - N/A   Unknown
6:55 AM 12.2 °F 0.7 °F -2.2 °F 53% 30.35 in 10.0 mi North 8.1 mph - N/A   Unknown
7:15 AM 14.0 °F 3.9 °F -4.0 °F 45% 30.35 in 10.0 mi North 6.9 mph - N/A   Unknown
7:35 AM 15.8 °F 8.6 °F -4.0 °F 41% 30.37 in 10.0 mi North 4.6 mph - N/A   Unknown
7:55 AM 15.8 °F 5.1 °F -5.8 °F 38% 30.39 in 10.0 mi North 8.1 mph - N/A   Unknown
8:15 AM 17.6 °F 7.3 °F -5.8 °F 35% 30.39 in 10.0 mi NNE 8.1 mph - N/A   Unknown
8:35 AM 17.6 °F 9.3 °F -7.6 °F 32% 30.40 in 10.0 mi NNE 5.8 mph - N/A   Unknown
8:55 AM 17.6 °F 10.7 °F -7.6 °F 32% 30.41 in 10.0 mi North 4.6 mph - N/A   Unknown
9:15 AM 19.4 °F 9.5 °F -9.4 °F 28% 30.41 in 10.0 mi NNE 8.1 mph - N/A   Unknown
9:35 AM 19.4 °F - -9.4 °F 28% 30.42 in 10.0 mi Calm Calm - N/A   Unknown
9:55 AM 21.2 °F 13.6 °F -9.4 °F 26% 30.42 in 10.0 mi NNE 5.8 mph - N/A   Unknown
10:15 AM 21.2 °F 14.9 °F -9.4 °F 26% 30.43 in 10.0 mi NNE 4.6 mph - N/A   Unknown
10:35 AM 21.2 °F - -9.4 °F 26% 30.42 in 10.0 mi Calm Calm - N/A   Clear
10:55 AM 24.8 °F 19.1 °F -7.6 °F 24% 30.42 in 10.0 mi NNE 4.6 mph - N/A   Clear
11:15 AM 24.8 °F 17.9 °F -7.6 °F 24% 30.42 in 10.0 mi NNE 5.8 mph - N/A   Clear
11:35 AM 24.8 °F - -7.6 °F 24% 30.41 in 10.0 mi Calm Calm - N/A   Clear
11:55 AM 26.6 °F - -5.8 °F 24% 30.41 in 10.0 mi Calm Calm - N/A   Clear
12:15 PM 24.8 °F 20.5 °F -7.6 °F 24% 30.41 in 10.0 mi East 3.5 mph - N/A   Clear
12:35 PM 26.6 °F 21.2 °F -5.8 °F 24% 30.40 in 10.0 mi SSE 4.6 mph - N/A   Clear
12:55 PM 28.4 °F - -5.8 °F 23% 30.39 in 10.0 mi Calm Calm - N/A   Clear
1:15 PM 26.6 °F - -5.8 °F 24% 30.38 in 10.0 mi Calm Calm - N/A   Clear
1:30 PM 28.4 °F 22.2 °F -4.0 °F 25% 30.37 in 10.0 mi SE 5.8 mph - N/A   Clear
1:55 PM 30.2 °F 26.7 °F -4.0 °F 23% 30.36 in 10.0 mi SSW 3.5 mph - N/A   Clear
2:15 PM 28.4 °F - -4.0 °F 25% 30.36 in 10.0 mi Calm Calm - N/A   Clear
2:35 PM 30.2 °F 25.4 °F -4.0 °F 23% 30.35 in 10.0 mi SSW 4.6 mph - N/A   Clear
2:55 PM 30.2 °F - -4.0 °F 23% 30.35 in 10.0 mi Calm Calm - N/A   Clear
3:15 PM 30.2 °F 26.7 °F -4.0 °F 23% 30.35 in 10.0 mi NW 3.5 mph - N/A   Clear
3:35 PM 32.0 °F - -4.0 °F 21% 30.35 in 10.0 mi Calm Calm - N/A   Clear
3:55 PM 30.2 °F - -2.2 °F 25% 30.35 in 10.0 mi Calm Calm - N/A   Clear
4:15 PM 32.0 °F - -2.2 °F 23% 30.35 in 10.0 mi Calm Calm - N/A   Clear
4:35 PM 30.2 °F - -4.0 °F 23% 30.35 in 10.0 mi Calm Calm - N/A   Clear
4:55 PM 32.0 °F - -4.0 °F 21% 30.35 in 10.0 mi Calm Calm - N/A   Unknown
5:15 PM 30.2 °F - -5.8 °F 21% 30.35 in 10.0 mi Calm Calm - N/A   Unknown
5:35 PM 32.0 °F - -5.8 °F 20% 30.35 in 10.0 mi Calm Calm - N/A   Unknown
5:55 PM 30.2 °F - -2.2 °F 25% 30.35 in 10.0 mi Calm Calm - N/A   Unknown
6:10 PM 28.4 °F - -2.2 °F 27% 30.35 in 10.0 mi Calm Calm - N/A   Clear
6:35 PM 26.6 °F - 3.2 °F 37% 30.35 in 10.0 mi Calm Calm - N/A   Clear
6:55 PM 26.6 °F - 5.0 °F 40% 30.34 in 10.0 mi Calm Calm - N/A   Clear
7:15 PM 24.8 °F - 3.2 °F 40% 30.34 in 10.0 mi Calm Calm - N/A   Clear
7:35 PM 26.6 °F - 1.4 °F 34% 30.34 in 10.0 mi Calm Calm - N/A   Clear
7:55 PM 26.6 °F - 1.4 °F 34% 30.34 in 10.0 mi Calm Calm - N/A   Clear
8:15 PM 26.6 °F - 1.4 °F 34% 30.34 in 10.0 mi Calm Calm - N/A   Clear
8:35 PM 24.8 °F - 1.4 °F 36% 30.35 in 10.0 mi Calm Calm - N/A   Clear
8:55 PM 24.8 °F - 3.2 °F 40% 30.35 in 10.0 mi Calm Calm - N/A   Clear
9:15 PM 23.0 °F - 3.2 °F 43% 30.35 in 10.0 mi Calm Calm - N/A   Clear
9:35 PM 21.2 °F - 3.2 °F 46% 30.35 in 10.0 mi Calm Calm - N/A   Clear
9:55 PM 21.2 °F - 1.4 °F 42% 30.35 in 10.0 mi Calm Calm - N/A   Clear
10:15 PM 21.2 °F - 1.4 °F 42% 30.36 in 10.0 mi Calm Calm - N/A   Clear
10:35 PM 19.4 °F - 8.6 °F 63% 30.37 in 10.0 mi Calm Calm - N/A   Clear
10:55 PM 19.4 °F - 8.6 °F 63% 30.38 in 10.0 mi Calm Calm - N/A   Clear
11:15 PM 19.4 °F - 6.8 °F 58% 30.38 in 10.0 mi Calm Calm - N/A   Clear
11:35 PM 19.4 °F - 8.6 °F 63% 30.38 in 10.0 mi Calm Calm - N/A   Clear
11:55 PM 17.6 °F - 10.4 °F 73% 30.38 in 10.0 mi Calm Calm - N/A   Clear